Regional Weather Roundup
Issued by NWS

Home | Current Version | Previous Version | Graphics & Text | Print | Product List | Glossary On
Versions: 1 2 3 4 5 6 7 8 9 10 11 12 13 14 15 16 17 18 19 20 21 22 23 24 25 26 27 28 29 30 31 32 33 34 35 36 37 38 39 40 41 42 43 44 45 46 47 48 49
000
ASUS45 KBOU 231707
RWRCO

WEATHER ROUNDUP FOR COLORADO
NATIONAL WEATHER SERVICE DENVER/BOULDER CO
1100 AM MDT TUE SEP 23 2014

NOTE: "FAIR" INDICATES FEW OR NO CLOUDS BELOW 12000 FEET WITH NO
SIGNIFICANT WEATHER AND/OR OBSTRUCTIONS TO VISIBILITY.

COZ001>005-013-030-031-231800-
...NORTHWEST COLORADO...

CITY           SKY/WX    TMP DP  RH WIND       PRES   REMARKS
CRAIG          PTSUNNY   68  51  54 W8        30.28
HAYDEN         MOSUNNY   64  48  55 W10       30.29S
MEEKER         PTSUNNY   62  52  69 CALM      30.30
MOUNT WERNER   NOT AVBL
STEAMBOAT SPGS PTSUNNY   59  49  69 CALM      30.31S
WALDEN         PTSUNNY   55  43  62 W9        30.34S
$$

COZ006>008-011-231800-
...WEST CENTRAL VALLEYS...

CITY           SKY/WX    TMP DP  RH WIND       PRES   REMARKS
GRAND JUNCTION SUNNY     71  53  52 SE12G20   30.22
MONTROSE       SUNNY     71  47  42 CALM      30.30
EAGLE          PTSUNNY   66  52  59 CALM      30.32
RIFLE          MOSUNNY   67  51  56 N5        30.26
DELTA          SUNNY     69  54  58 NE5       30.27S HAZE
NUCLA          SUNNY     68  43  40 CALM      30.33F
$$

COZ017>023-064>068-231800-
...SOUTHWEST COLORADO...

CITY           SKY/WX    TMP DP  RH WIND       PRES   REMARKS
DURANGO        SUNNY     65  50  58 E3        30.34
CORTEZ         SUNNY     70  43  37 CALM      30.30
PAGOSA SPRINGS SUNNY     64  43  46 S3        30.39F
TELLURIDE      NOT AVBL
WOLF CREEK PAS MOSUNNY   45  36  70 S8        30.63R
$$

COZ009-010-012-014-032>034-037-058>063-231800-
...CENTRAL COLORADO...

CITY           SKY/WX    TMP DP  RH WIND       PRES   REMARKS
ASPEN          PTSUNNY   64  44  48 N8        30.37
BUENA VISTA    CLOUDY    60  44  55 SE8       30.36S
COPPER MTN     CLOUDY    46  34  61 W22G33    30.59R
BERTHOUD PASS  CLOUDY    37  36  93 NW31G45   30.56F
COTTONWOOD PAS CLOUDY    57  37  47 NE5       30.46F
GUNNISON       MOSUNNY   54  45  71 CALM      30.42S
KREMMLING      LGT RAIN  57  46  67 N3        30.34S
LEADVILLE      CLOUDY    53  34  48 NW14G24   30.46
MONARCH PASS   FOG       37  37 100 W26G33    30.68R VSB<1/4
SALIDA         CLOUDY    65  44  45 SW14      30.40S
SUNLIGHT       PTSUNNY   52  45  76 CALM      30.56S
WILKERSON PASS NOT AVBL
$$

COZ069>075-231800-
...SAN LUIS VALLEY/SANGRE DE CRISTO MOUNTAINS...

CITY           SKY/WX    TMP DP  RH WIND       PRES   REMARKS
ALAMOSA        SUNNY     64  44  48 SE6       30.36
LA VETA PASS   SUNNY     55  39  54 SW5       30.51S
SAGUACHE       CLOUDY    61  43  51 NW12      30.40S
$$

COZ035-036-038>040-231800-
...NORTHERN COLORADO FRONT RANGE...

CITY           SKY/WX    TMP DP  RH WIND       PRES   REMARKS
DENVER INTL AP MOSUNNY   75  44  33 N7        30.15
DMNS CITY PARK   N/A     76  47  35 S2        30.14S
AURORA         MOSUNNY   72  46  38 MISG      30.17
FRONT RANGE AP PTSUNNY   75  45  33 NW6       30.16
ERIE MUNI ARPT NOT AVBL
BOULDER MUN AP CLOUDY    68  45  42 N10       30.15R
CENTENNIAL     MOSUNNY   73  41  31 W5        30.17
BROOMFIELD     PTSUNNY   75  45  33 E5        30.17
FORT COLLINS   PTSUNNY   70  48  46 S5        30.14F
LONGMONT       PTSUNNY   71  52  50 CALM      30.16R
$$

COZ041-046-047-076>085-087-088-231800-
...PIKES PEAK/PALMER DIVIDE AND SOUTHERN FOOTHILLS...

CITY           SKY/WX    TMP DP  RH WIND       PRES   REMARKS
COLO. SPRINGS  MOSUNNY   76  35  22 VRB6      30.21
A. F. ACADEMY  SUNNY     75  33  21 NW12G21   30.22
ELLICOTT       NOT AVBL
FALCON         SUNNY     74  31  20 NW13G24   30.25F
FORT CARSON    SUNNY     76  42  29 VRB3      30.18
LIMON          SUNNY     76  47  35 VRB5      30.15
MONUMENT HILL  SUNNY     70  36  28 NW7G17    30.25S
TRINIDAD       SUNNY     78  40  25 W14       30.20
$$

COZ042>045-048>051-090-091-231800-
...NORTHEAST COLORADO...

CITY           SKY/WX    TMP DP  RH WIND       PRES   REMARKS
GREELEY ARPT   PTSUNNY   72  48  43 W6        30.13S
AKRON          PTSUNNY   69  54  58 MISG      30.12
BURLINGTON     MOSUNNY   76  55  48 VRB3      30.09
WRAY           SUNNY     81  54  39 W13       30.05S
STERLING       PTSUNNY   82  50  32 W16G22    30.06S
HOLYOKE        SUNNY     81  46  30 W18G25    30.04S
FORT MORGAN    PTSUNNY   73  47  39 CALM      30.11F
$$

COZ086-089-092>099-231800-
...SOUTHEAST COLORADO...

CITY           SKY/WX    TMP DP  RH WIND       PRES   REMARKS
PUEBLO         MOSUNNY   79  48  33 SW7       30.11
LA JUNTA       SUNNY     75  56  51 W6        30.11
LAMAR          SUNNY     76  59  55 VRB5      30.07
SPRINGFIELD      N/A     83  51  33 NW10      30.10
$$


USA.gov is the U.S. government's official web portal to all federal, state and local government web resources and services.